Regional Weather Roundup
Issued by NWS Lake Charles, LA

Home | Current Version | Previous Version | Text Only | Print | Product List | Glossary On
Versions: 1 2 3 4 5 6 7 8 9 10 11 12 13 14 15 16 17 18 19 20 21 22 23 24 25 26 27 28 29 30 31 32 33 34 35 36 37 38 39 40 41 42 43 44 45 46 47 48 49 50
000
ASUS44 KLCH 031110
RWRLCH
REGIONAL WEATHER ROUNDUP
NATIONAL WEATHER SERVICE LAKE CHARLES LA
500 AM CST SAT DEC 03 2016

Note: "fair" indicates few or no clouds below 12,000 feet with no
significant weather and/or obstructions to visibility.


ACROSS SOUTHEAST TEXAS

CITY           SKY/WX    TMP DP  RH WIND       PRES   REMARKS
BEAUMONT       HVY RAIN  53  51  93 E18G25    29.95F FOG
BEAUMONT CITY  RAIN      54  51  91 E13G24    29.97S
ORANGE         RAIN     N/A N/A N/A E16       30.00S
JASPER         HVY RAIN  51  49  92 E7G16     30.06R
$$

ACROSS CENTRAL LOUISIANA

CITY           SKY/WX    TMP DP  RH WIND       PRES   REMARKS
LEESVILLE      LGT RAIN  48  46  93 E14       30.05F FOG
FULLERTON      LGT RAIN  49  46  90 NE9       30.06F
ALEXANDRIA INT CLOUDY    48  45  89 NE13G22   30.11F
ESLER FIELD    CLOUDY    49  47  93 NE8       30.14
DERIDDER       RAIN      49  47  91 E9        30.07F
OAKDALE        RAIN      50  46  84 E6        30.09R
OPELOUSAS      CLOUDY    51  44  77 E8        30.09S
$$

ACROSS SOUTHWEST AND SOUTH CENTRAL LOUISIANA

CITY           SKY/WX    TMP DP  RH WIND       PRES   REMARKS
SULPHUR        NOT AVBL
LAKE CHARLES   RAIN      52  50  93 E14G24    30.01F FOG
CHENNAULT INT  NOT AVBL
CAMERON PHI    NOT AVBL
DEQUINCY       RAIN      49  47  93 NE6       30.03F
JENNINGS       LGT RAIN  52  48  87 E14G23    30.04R
LAFAYETTE      RAIN      55  48  77 NE7       30.07R
NEW IBERIA     LGT RAIN  59  46  62 E14       30.07
ABBEVILLE      NOT AVBL
PATTERSON      CLOUDY   N/A N/A N/A E13       30.06F
SALT POINT     NOT AVBL
$$

SELECTED SITES ACROSS THE REGION

CITY           SKY/WX    TMP DP  RH WIND       PRES   REMARKS
HOUSTON BUSH   CLOUDY    50  48  93 E14       29.92F THUNDER FOG
HOUSTON HOBBY  CLOUDY    54  53  97 NE17G23   29.89F
GALVESTON      CLOUDY    66  64  93 NE14      29.88F
COLLEGE STAT   HVY RAIN  49  48  97 E10G17    29.97S FOG
CONROE         RAIN      49  47  93 NE10G18   29.94F FOG
HUNTSVILLE     HVY RAIN  49  46  90 E9        29.96F FOG
LUFKIN         HVY RAIN  49  47  93 E15G22    30.04S FOG
SHREVEPORT     RAIN      48  47  96 E10       30.13F
MONROE         RAIN      47  44  90 E5        30.21R
NATCHEZ MS     CLOUDY    48  43  81 NE9       30.16S
BATON ROUGE    CLOUDY    55  42  61 NE9       30.11R
N.O. INTL ARPT CLOUDY    57  51  80 E13       30.10F
SLIDELL        CLOUDY    56  39  53 E8        30.12F
$$

MARINE REPORTS

STATION/POSITION TIME  SKY/WX   TEMP    WIND        PRES    VSBY
                                AIR SEA DIR/SP/G
                 (UTC)          (F)     (DEG/KT/KT) (MB)    (MI)
BUOY 30 S HIGH I 1050            67 68   20/ 17/ 25 1011.2F
WVE H/P(F/S)= 11/ 8

SEA RIM ST PARK  1100            55      50/ 15/ 18 1014.0F
PORT ARTHUR      1048               63   60/ 10/ 15 1014.8F
SABINE PASS N    1048            57 64   50/ 17/ 23 1014.5F
TEXAS POINT      NOT AVBL
CALCASIEU PASS   1048            56 61  110/ 20/ 29   N/A
LK CHARLES BEACH 1048            51 66              1016.4F
MARSH ISLAND     1000            60                   N/A
FRESH WATER LOCK 1048            58 62   70/ 11/ 16 1017.3R
AMERADA PASS     1048            58 60   70/ 10/ 16 1017.1F
$$



USA.gov is the U.S. government's official web portal to all federal, state and local government web resources and services.